Akron, CO

6:21 PM MST on January 16, 2017 (GMT -0700)
Akron-Washington County

Weather History for KAKO - July, 2013

Change the Weather History Date:

Saturday, July 20, 2013

  Actual Average Record
Temperature  
Mean Temperature 72 °F 75 °F  
Max Temperature 85 °F 89 °F 107 °F (1939)
Min Temperature 58 °F 60 °F 49 °F (1988)
Cooling Degree Days 7    
Month to date cooling degree days 188  
Growing Degree Days 22 (Base 50)    
Moisture  
Dew Point 57 °F    
Average Humidity 65    
Maximum Humidity 90    
Minimum Humidity 40    
Precipitation  
Precipitation 0.31 in 0.08 in 3.18 in (1980)
Month to date precipitation 3.01 1.56  
Year to date precipitation 8.10 10.20  
Sea Level Pressure  
Sea Level Pressure 29.94 in    
Wind  
Wind Speed 13 mph (South)    
Max Wind Speed 41 mph    
Max Gust Speed 52 mph    
Visibility 9 miles    
Events Rain , Thunderstorm    
T = Trace of Precipitation, MM = Missing Value Source: NWS Daily Summary

Daily Weather History Graph

Daily Weather History Graph

Search for Another Location

Airport or City:

Trip Planner

Search our weather history database for the weather conditions in past years. The results will help you decide how hot, cold, wet, or windy it might be!

Date:

Astronomy

Jul. 20, 2013 Rise Set
Actual Time 5:40 AM MDT 8:17 PM MDT
Civil Twilight 5:08 AM MDT 8:49 PM MDT
Nautical Twilight 4:29 AM MDT 9:28 PM MDT
Astronomical Twilight 3:45 AM MDT 10:12 PM MDT
Moon 6:23 PM MDT (7/20) 3:22 AM MDT (7/20)
Length of Visible Light 15h 40m
Length of Day
14h 37m
Waxing Gibbous, 94% of the Moon is Illuminated
Jul 20
Waxing Gibbous
Jul 22
Full
Jul 29
Last Quarter
Aug 6
New
Aug 14
First Quarter

Hourly Weather History & Observations

Time (MDT) Temp. Heat Index Dew Point Humidity Pressure Visibility Wind Dir Wind Speed Gust Speed Precip Events Conditions
12:53 AM 61.0 °F - 57.0 °F 87% 29.99 in 10.0 mi South 9.2 mph - N/A   Clear
1:53 AM 60.1 °F - 55.9 °F 86% 29.99 in 10.0 mi South 9.2 mph - N/A   Clear
2:53 AM 60.1 °F - 55.9 °F 86% 29.98 in 10.0 mi SSW 9.2 mph - N/A   Clear
3:53 AM 61.0 °F - 55.9 °F 83% 29.96 in 10.0 mi South 10.4 mph - N/A   Clear
4:53 AM 59.0 °F - 55.9 °F 90% 29.94 in 10.0 mi SSW 8.1 mph - N/A   Clear
5:53 AM 61.0 °F - 55.9 °F 83% 29.93 in 10.0 mi SSW 8.1 mph - N/A   Clear
6:53 AM 64.0 °F - 57.9 °F 80% 29.91 in 10.0 mi SW 15.0 mph - N/A   Clear
7:53 AM 70.0 °F - 59.0 °F 68% 29.89 in 10.0 mi WSW 12.7 mph - N/A   Clear
8:53 AM 73.9 °F - 60.1 °F 62% 29.88 in 10.0 mi West 12.7 mph 20.7 mph N/A   Clear
9:53 AM 78.1 °F - 60.1 °F 54% 29.89 in 10.0 mi WNW 6.9 mph - N/A   Clear
10:53 AM 82.0 °F 82.0 °F 57.9 °F 44% 29.88 in 10.0 mi Variable 6.9 mph - N/A   Clear
11:53 AM 82.0 °F 82.7 °F 61.0 °F 49% 29.88 in 10.0 mi East 12.7 mph 21.9 mph N/A   Partly Cloudy
12:53 PM 82.0 °F 82.0 °F 57.9 °F 44% 29.87 in 10.0 mi SE 12.7 mph 23.0 mph N/A   Clear
1:53 PM 82.9 °F 82.8 °F 59.0 °F 44% 29.86 in 10.0 mi SE 17.3 mph 26.5 mph N/A   Partly Cloudy
2:53 PM 84.0 °F 83.8 °F 59.0 °F 43% 29.85 in 10.0 mi ESE 15.0 mph 21.9 mph N/A   Partly Cloudy
3:53 PM 84.0 °F 83.5 °F 57.9 °F 41% 29.82 in 10.0 mi SSE 13.8 mph 26.5 mph N/A   Clear
4:53 PM 84.0 °F 83.3 °F 57.0 °F 40% 29.82 in 10.0 mi SE 9.2 mph 17.3 mph N/A   Clear
5:53 PM 82.0 °F 82.0 °F 57.9 °F 44% 29.82 in 10.0 mi SE 9.2 mph - N/A   Clear
6:53 PM 79.0 °F - 57.9 °F 48% 29.83 in 10.0 mi ESE 12.7 mph - N/A   Clear
7:42 PM 75.2 °F - 57.2 °F 53% 30.04 in 10.0 mi NW 23.0 mph 39.1 mph N/A Thunderstorm Mostly Cloudy
7:53 PM 66.0 °F - 55.0 °F 68% 29.94 in 9.0 mi North 28.8 mph 46.0 mph 0.00 in Rain , Thunderstorm Light Thunderstorms and Rain
8:01 PM 60.8 °F - 55.4 °F 82% 30.12 in 8.0 mi NW 25.3 mph 51.8 mph 0.01 in Rain , Thunderstorm Light Thunderstorms and Rain
8:09 PM 62.6 °F - 55.4 °F 77% 30.15 in 2.5 mi West 17.3 mph 38.0 mph 0.08 in Rain , Thunderstorm Heavy Thunderstorms and Rain
8:12 PM 60.8 °F - 57.2 °F 88% 30.16 in 1.2 mi WSW 23.0 mph 36.8 mph 0.14 in Rain , Thunderstorm Heavy Thunderstorms and Rain
8:16 PM 62.6 °F - 57.2 °F 82% 30.13 in 1.0 mi SSW 21.9 mph 29.9 mph 0.20 in Rain , Thunderstorm Heavy Thunderstorms and Rain
8:23 PM 62.6 °F - 57.2 °F 82% 30.07 in 1.2 mi South 25.3 mph 38.0 mph 0.26 in Rain , Thunderstorm Heavy Thunderstorms and Rain
8:28 PM 64.4 °F - 57.2 °F 77% 30.04 in 2.0 mi SSE 31.1 mph 40.3 mph 0.29 in Rain , Thunderstorm Heavy Thunderstorms and Rain
8:38 PM 62.6 °F - 57.2 °F 82% 30.01 in 6.0 mi ESE 20.7 mph 27.6 mph 0.31 in Rain , Thunderstorm Light Thunderstorms and Rain
8:53 PM 66.0 °F - 57.0 °F 73% 29.84 in 10.0 mi ESE 17.3 mph - 0.31 in Thunderstorm Partly Cloudy
9:04 PM 66.2 °F - 57.2 °F 73% 30.00 in 10.0 mi South 21.9 mph 26.5 mph N/A   Clear
9:12 PM 66.2 °F - 57.2 °F 73% 30.00 in 10.0 mi South 17.3 mph 25.3 mph N/A   Clear
9:53 PM 69.1 °F - 54.0 °F 58% 29.83 in 10.0 mi South 23.0 mph - N/A   Clear
10:53 PM 66.0 °F - 54.0 °F 65% 29.85 in 10.0 mi South 16.1 mph 24.2 mph N/A   Clear
11:53 PM 64.9 °F - 55.0 °F 70% 29.86 in 10.0 mi SSW 13.8 mph 25.3 mph N/A   Clear